Vorticity
8 9 9 11 14 13 13 12 9 7 6 8 8 7 8 6 2 4 7 8 9 10 9 9 7 6 6 5 5 6 5 6 6 6 6 5 6 5 5 5 5 5 5 5 5 5 4 4 4 4 4 4 4 4 4 5 5 6 6 6 6 6 6 7 7 7 8 10 11 8 8 8 9 13 13 10 10 10 6 5 6 2 10 19 1 -10 10
13 13 14 14 13 11 10 8 6 6 7 7 6 5 7 6 4 7 9 9 9 9 8 8 7 6 7 5 6 7 7 8 7 7 6 5 5 5 5 5 4 5 5 5 4 4 4 4 4 4 4 4 5 5 5 6 6 7 7 6 7 7 8 9 9 8 8 7 6 5 7 8 9 12 12 9 10 8 7 6 3 4 13 12 -2 -2 10
14 13 13 11 9 8 7 6 6 7 6 5 4 6 8 8 8 9 10 9 9 7 7 7 7 7 7 7 8 7 7 8 7 6 6 6 6 5 5 5 5 5 5 4 4 4 5 4 4 5 5 5 6 6 6 7 7 7 8 7 7 7 8 9 9 9 10 8 7 7 6 7 9 12 11 10 9 9 8 4 4 10 7 2 7 8 2
11 11 9 7 7 6 5 6 6 5 5 6 6 8 9 9 9 9 8 9 8 7 7 7 7 9 9 9 9 8 7 8 7 7 6 6 6 5 5 5 5 4 5 4 5 5 5 5 5 6 6 6 7 7 7 8 7 8 8 7 7 7 7 7 6 7 8 9 10 9 7 8 10 12 12 11 8 8 7 3 8 14 0 -2 16 9 -7
9 7 6 5 5 5 6 6 6 6 7 8 8 8 8 8 8 8 7 8 8 7 8 8 8 9 8 8 8 8 7 7 7 7 6 6 6 5 5 5 4 5 5 5 5 6 6 7 7 7 7 7 7 7 7 7 7 7 7 6 6 6 6 6 5 6 8 10 9 8 8 9 10 13 14 11 8 6 7 8 11 10 -2 1 15 7 -3
6 4 4 5 5 6 7 7 7 8 8 8 7 7 7 7 7 7 8 8 8 8 8 8 8 8 7 7 7 6 6 6 6 5 5 6 6 5 6 6 6 6 6 6 6 6 6 6 6 6 6 6 6 7 7 6 6 6 6 6 6 6 6 6 5 6 10 12 10 7 9 8 11 17 14 8 8 8 7 11 10 4 1 7 11 8 7
3 3 4 6 7 8 8 9 8 8 7 7 7 6 7 7 7 6 6 6 7 8 7 7 7 7 7 7 6 6 6 6 6 6 6 6 7 6 6 6 7 6 6 6 6 6 6 6 6 6 6 7 7 6 6 6 6 7 7 7 7 7 8 8 6 7 11 13 10 8 10 10 13 17 12 7 11 8 5 8 7 3 8 12 8 7 11
4 5 7 9 9 9 9 8 7 6 6 7 6 5 6 7 7 6 5 6 6 6 7 6 6 6 6 6 6 7 6 6 6 7 6 6 6 6 6 6 7 6 6 7 7 7 7 7 7 7 7 8 8 7 8 8 8 9 9 9 10 9 10 10 8 9 13 12 8 9 11 12 13 13 10 9 9 5 4 9 10 8 11 11 8 8 10
7 9 10 9 9 8 7 6 6 6 5 5 6 6 5 5 6 6 5 6 6 6 6 6 6 6 6 6 6 6 6 6 6 6 7 7 6 7 7 7 7 8 7 7 7 7 7 7 7 8 7 8 8 8 10 9 9 11 10 10 11 10 10 12 9 11 16 13 10 10 10 11 13 13 11 9 5 4 8 12 12 12 11 9 7 7 6
9 9 10 9 8 7 6 5 5 4 4 5 5 5 5 5 5 5 5 5 6 6 6 6 6 6 6 7 7 7 8 8 8 7 8 8 7 7 7 6 6 6 5 6 6 5 6 7 7 9 9 10 10 10 10 11 11 11 11 11 12 11 11 13 11 12 17 15 11 11 11 13 15 12 9 8 6 8 12 12 13 12 8 6 5 5 5
10 9 9 8 7 6 5 4 5 4 5 5 5 5 6 5 5 5 5 5 6 6 6 7 8 8 9 10 10 10 9 8 8 7 5 6 6 5 5 5 4 4 5 5 6 6 8 9 9 10 11 10 11 11 12 13 13 13 13 12 13 13 13 13 12 13 16 15 11 11 13 16 15 11 9 9 8 9 9 8 11 9 4 4 5 5 5
9 8 8 8 7 6 5 4 4 4 3 4 4 4 5 5 5 7 7 8 9 10 10 11 12 12 11 10 8 7 6 5 5 4 3 4 4 4 4 4 4 6 7 8 9 9 10 11 12 13 13 13 13 14 14 15 15 14 14 13 14 14 13 12 12 12 14 12 10 11 12 13 12 11 9 8 8 8 7 9 12 7 1 4 7 6 5
8 8 8 8 7 6 6 7 7 7 7 8 8 9 10 10 10 11 12 12 12 12 12 10 9 8 7 5 4 3 3 3 3 4 4 4 4 4 5 6 8 10 11 12 14 15 15 16 17 17 17 16 16 16 16 17 16 14 14 14 13 12 11 11 10 10 10 10 10 11 11 10 9 8 7 8 9 8 6 8 9 4 2 6 7 5 5
8 8 8 9 9 10 10 11 12 12 13 13 13 14 15 15 14 13 13 12 11 9 7 5 4 3 3 2 2 3 4 4 4 5 5 5 5 8 10 13 15 16 18 19 19 19 20 19 18 17 16 15 15 15 16 15 14 12 12 11 10 9 9 9 8 8 9 10 10 11 11 11 9 6 5 7 8 6 4 5 6 4 6 7 4 4 6
8 9 9 9 10 11 11 12 13 14 14 14 14 14 13 13 11 9 7 7 6 4 2 2 1 2 3 4 4 5 5 5 5 5 7 9 12 15 17 18 20 20 20 20 18 17 17 15 14 13 12 12 12 13 13 12 11 11 9 8 8 8 8 8 8 10 11 11 11 10 10 9 6 4 5 5 6 6 5 5 8 9 8 5 3 6 7
8 9 10 11 12 13 15 15 14 14 13 12 9 7 7 6 3 2 1 2 3 2 1 2 3 4 5 5 5 5 4 5 7 10 14 17 18 19 19 19 19 18 16 14 13 12 11 10 10 11 10 10 11 11 11 11 10 8 7 8 9 8 9 10 12 12 10 9 8 8 8 7 4 4 7 7 6 6 5 6 8 9 6 4 4 6 6
11 13 14 14 14 13 11 9 8 6 4 3 2 1 2 2 1 2 3 3 3 3 4 5 6 5 4 4 5 6 8 12 16 18 19 19 18 18 19 17 15 12 10 10 9 9 9 9 10 11 11 10 10 10 10 10 10 9 9 10 11 10 10 12 10 8 7 6 5 7 8 7 7 7 7 7 6 5 6 6 6 5 5 4 5 6 6
13 12 10 8 7 5 2 2 3 2 2 3 3 3 4 5 5 5 5 5 6 6 6 5 5 4 5 8 11 15 18 20 20 19 18 17 17 16 14 11 10 9 9 10 10 10 12 12 11 12 12 11 11 11 11 11 11 10 10 9 9 9 9 8 7 6 7 7 7 8 8 7 7 7 6 6 5 5 5 5 5 5 6 6 6 7 7
6 4 2 2 2 1 2 3 4 5 6 6 6 7 7 7 7 7 7 7 6 4 4 5 7 10 14 18 20 21 20 18 17 16 15 15 13 11 10 9 10 10 10 11 11 12 13 13 13 14 13 13 12 11 11 10 8 7 7 6 6 7 7 7 7 7 7 8 9 8 6 6 5 5 4 4 5 5 5 5 6 8 9 9 9 10 8
1 1 1 3 4 5 7 8 8 10 10 10 10 10 7 6 6 6 4 3 3 5 9 13 17 20 22 22 20 19 17 16 15 14 13 12 11 11 11 11 10 10 10 11 12 12 12 12 11 11 11 10 9 9 8 7 6 5 6 6 6 7 8 7 8 8 7 8 9 6 5 6 5 3 3 4 5 6 7 8 9 11 11 10 10 10 10
4 5 7 8 10 11 11 11 12 12 12 10 8 6 4 5 3 2 2 6 12 17 21 22 23 22 20 18 17 16 16 15 14 13 12 12 11 11 11 10 10 10 10 10 9 9 9 9 8 8 8 6 7 8 7 7 7 6 6 7 8 8 7 6 7 7 7 7 7 5 4 6 5 5 6 7 8 9 10 11 12 11 10 9 8 9 9
8 10 11 11 12 11 11 11 11 9 7 5 3 3 4 3 3 8 16 22 25 25 23 21 20 18 16 16 15 15 14 13 12 12 11 11 11 10 10 9 9 9 9 8 9 8 8 8 7 7 8 7 7 8 8 7 8 8 7 7 6 5 5 6 6 6 7 8 7 5 5 6 6 7 9 10 11 12 11 10 9 10 10 9 7 6 6
10 11 11 10 11 10 9 8 6 3 3 1 -1 1 4 8 15 23 26 25 23 21 19 19 17 16 15 14 13 12 12 11 11 11 10 10 10 9 9 9 9 9 9 8 9 8 7 8 8 8 8 8 7 7 7 6 6 6 5 4 4 5 6 6 6 6 8 8 7 5 6 8 8 9 11 11 10 9 9 7 7 8 7 6 6 6 6
11 12 11 10 9 8 6 4 2 2 2 -2 -2 6 15 21 25 24 18 16 19 20 18 16 15 14 13 12 11 11 11 11 10 10 10 9 9 8 9 9 8 8 9 9 8 9 9 9 10 9 8 8 6 5 5 5 4 4 5 5 6 7 7 7 7 7 6 6 5 4 6 9 10 9 8 7 6 7 8 7 7 6 6 6 6 6 5
12 11 9 7 7 5 4 3 3 3 1 0 9 22 25 21 17 12 10 14 17 17 15 13 12 11 10 9 9 9 9 9 10 10 9 8 8 8 8 9 9 9 11 11 9 10 9 9 8 7 5 5 5 4 4 5 5 5 6 7 7 7 7 6 6 6 7 7 8 8 9 11 10 8 6 6 6 5 6 5 4 4 3 3 4 5 5
9 9 7 6 6 5 4 3 3 2 4 12 23 25 15 8 9 9 10 12 14 13 12 11 9 9 9 9 9 8 8 9 9 9 9 8 9 10 10 11 12 12 10 9 8 8 7 6 5 4 4 5 5 5 5 6 6 7 8 8 7 7 7 7 7 8 9 9 7 6 6 5 3 1 1 3 3 3 3 3 2 3 4 4 4 4 2
9 9 8 7 6 3 2 2 3 7 14 21 21 14 5 5 9 10 9 11 11 11 11 8 8 9 9 9 9 9 9 9 9 9 11 12 12 12 11 10 10 8 7 6 6 6 5 4 3 4 5 5 5 5 6 7 7 9 9 8 8 9 9 9 9 9 8 7 6 6 6 7 5 3 3 4 4 4 5 6 6 6 6 4 4 7 13
8 7 6 4 3 2 3 5 9 15 21 20 12 6 5 7 9 9 10 10 10 10 10 8 8 9 10 9 10 10 10 11 12 13 13 13 11 9 9 7 6 6 5 3 3 4 3 3 4 5 6 6 7 7 8 8 9 10 10 9 9 11 11 10 9 9 8 8 8 8 8 8 8 7 6 6 5 5 6 7 7 6 8 14 22 31 37
4 4 4 5 6 8 11 13 16 18 19 15 10 7 7 7 9 11 10 9 10 10 10 10 9 10 11 11 11 13 13 13 13 12 10 9 7 6 6 5 4 4 4 2 3 4 4 5 6 7 7 7 8 8 9 10 10 10 9 9 11 11 10 10 9 8 8 8 7 6 6 5 5 5 6 7 7 8 8 9 14 20 28 36 38 33 26
7 9 11 12 14 15 16 17 17 16 15 14 13 11 10 10 12 11 9 9 11 10 10 11 12 12 13 13 12 13 13 11 9 8 7 7 6 5 4 4 3 3 4 4 5 6 6 7 8 7 8 8 9 10 11 10 10 9 9 10 10 8 8 8 8 7 7 6 5 5 5 5 4 5 8 9 10 12 16 23 31 36 35 29 19 11 7
14 15 17 18 18 19 18 17 16 15 14 14 13 13 13 12 11 11 10 10 11 12 12 14 13 12 13 12 10 9 9 7 6 6 6 5 4 3 4 4 4 5 5 6 7 8 8 8 8 8 9 10 10 11 10 8 9 10 10 9 9 7 7 7 5 5 4 3 3 4 5 6 6 6 9 14 19 24 30 33 31 24 16 10 7 7 9
18 20 21 20 18 17 15 14 14 14 13 13 13 12 12 12 11 12 13 13 14 14 14 12 11 10 10 9 7 7 6 5 5 5 4 4 3 4 4 5 6 7 8 8 9 9 8 9 10 10 11 10 9 9 8 8 10 9 8 7 7 5 5 4 2 2 3 3 4 5 6 8 9 10 16 25 32 33 29 22 15 9 7 8 10 11 11
22 21 18 15 13 13 13 13 14 14 14 14 14 13 13 14 15 15 15 14 13 11 10 9 8 8 7 6 6 6 5 4 5 4 4 4 5 5 6 8 9 10 10 9 8 8 9 10 10 10 9 8 8 8 9 10 10 8 7 7 6 4 3 3 2 4 6 7 8 9 10 11 14 21 30 35 31 22 14 9 8 8 8 10 11 11 13
21 17 13 13 13 14 14 15 15 15 16 16 16 16 16 15 14 13 11 10 9 8 7 7 6 6 6 5 5 5 5 4 5 4 4 5 7 8 10 11 10 10 9 9 9 9 10 9 9 9 9 8 9 10 10 9 8 7 6 6 4 3 4 4 5 7 8 9 10 10 11 16 23 31 35 29 17 9 7 8 9 8 8 10 12 13 15
19 13 12 14 15 13 13 14 14 14 14 14 13 13 12 10 9 9 8 7 7 6 6 6 5 5 5 4 4 6 6 4 4 5 6 8 11 11 11 11 10 9 9 9 8 8 8 8 9 10 10 9 9 9 8 7 6 5 4 3 3 4 5 6 8 8 8 10 13 14 19 27 32 32 25 15 8 7 8 7 7 8 8 11 13 14 18
18 12 12 15 15 11 10 11 12 12 12 11 10 9 9 9 8 7 6 6 6 5 5 6 5 5 5 5 6 6 5 4 6 8 10 12 12 11 10 10 9 9 9 8 8 9 9 10 10 10 9 8 8 8 7 6 5 3 3 4 5 6 8 8 8 7 10 16 20 22 27 32 28 20 13 9 7 8 6 5 7 9 10 11 12 14 18
18 13 12 14 14 13 11 9 9 9 9 8 8 8 7 7 6 5 5 6 6 5 6 6 6 6 6 6 6 6 6 8 10 12 12 12 10 9 9 8 8 8 9 8 9 11 10 9 8 8 8 7 8 7 5 4 4 4 5 6 7 8 9 10 9 9 12 18 24 27 28 25 17 9 6 4 3 2 2 5 8 9 9 11 12 12 15
19 14 12 13 14 14 13 12 11 10 8 7 8 7 7 7 6 6 6 7 7 7 7 7 7 7 7 7 8 9 11 12 13 12 10 9 8 8 7 7 8 9 10 10 11 11 10 8 7 8 8 7 6 5 4 3 4 5 7 8 9 9 10 11 12 12 14 21 31 35 32 25 16 10 6 3 2 3 4 6 7 6 5 8 10 11 15
20 16 13 13 13 13 13 13 12 11 10 10 9 9 8 8 8 8 8 8 7 7 7 8 8 8 8 10 11 12 12 12 10 9 8 8 7 6 6 8 9 10 11 11 10 8 8 8 9 9 7 5 4 4 3 4 5 7 8 10 10 10 12 14 16 17 21 29 33 29 20 14 10 7 6 6 6 7 7 6 6 6 6 7 9 10 13
20 19 15 13 13 13 13 12 11 11 11 10 9 10 9 9 9 9 8 8 8 8 9 10 10 10 11 13 13 12 11 9 8 7 8 7 6 6 8 9 9 10 11 10 7 7 9 10 8 6 5 3 3 3 3 4 7 8 10 11 11 11 14 18 19 21 26 31 26 14 5 4 5 4 4 6 6 6 7 6 7 8 9 7 6 6 8
18 19 16 13 13 13 12 11 10 10 10 9 9 10 10 9 9 9 9 9 11 11 12 12 13 13 14 14 12 10 8 7 7 7 7 6 7 9 10 9 9 11 11 8 7 10 10 7 4 3 3 4 4 4 4 6 8 9 9 10 11 12 15 19 23 27 29 26 18 9 4 3 3 3 3 4 4 4 5 6 7 8 7 4 3 4 6
14 17 16 15 13 12 11 11 10 9 9 9 10 10 10 10 10 11 11 12 13 14 14 14 14 14 12 10 8 7 6 6 6 5 6 7 9 9 9 9 10 11 10 8 10 10 6 2 2 3 4 4 5 6 6 7 8 9 10 11 11 12 15 20 27 32 30 21 13 8 6 3 2 4 3 2 3 4 4 4 5 4 3 3 3 4 5
11 12 14 14 14 12 11 10 9 8 9 10 10 11 12 12 13 14 14 14 14 15 15 14 12 10 8 6 5 5 5 5 6 6 8 9 8 7 8 10 11 9 8 9 9 5 2 2 4 4 3 4 5 6 7 8 7 6 8 11 12 14 18 24 29 31 27 18 10 7 7 5 3 4 3 1 2 3 4 4 4 3 2 3 4 4 5
10 9 10 11 11 10 10 10 9 9 10 10 11 12 14 15 16 16 15 14 13 13 11 9 7 6 5 4 5 5 5 6 7 8 9 9 8 9 11 11 10 8 8 7 4 3 3 4 5 4 4 5 5 5 5 6 4 4 7 13 17 19 20 24 28 28 23 15 8 6 6 5 3 4 4 2 1 2 3 3 3 2 1 2 2 4 5
9 9 9 8 8 8 9 9 9 10 11 11 11 12 13 15 16 15 14 12 11 9 7 6 5 5 4 5 6 6 6 7 8 9 9 9 10 11 11 10 8 8 6 4 4 5 5 4 4 3 3 3 3 3 4 4 5 7 9 13 18 21 20 22 27 27 21 13 8 7 6 5 4 4 3 2 2 3 3 3 2 2 2 1 1 3 5
8 9 9 8 8 9 10 10 11 12 12 12 12 12 12 13 13 12 11 10 8 7 6 6 6 5 5 6 7 7 7 8 9 9 10 11 11 10 9 8 7 6 4 4 5 4 3 3 4 4 4 4 4 4 4 4 6 8 10 13 18 22 22 23 25 25 19 12 7 6 6 6 5 5 4 3 3 3 3 3 2 2 1 1 2 4 5
9 9 8 7 9 10 12 14 15 16 15 15 14 13 12 12 11 11 10 8 7 7 7 6 6 6 6 6 7 8 8 10 11 10 10 11 10 8 7 8 7 6 6 6 5 4 4 5 4 4 4 5 5 5 4 4 5 8 11 15 20 22 22 22 23 21 18 13 8 6 6 6 6 6 5 5 4 3 3 4 3 2 2 3 4 4 3
9 8 8 8 10 13 15 17 17 17 18 18 16 14 12 11 10 9 8 7 6 6 6 5 5 7 7 7 9 11 11 11 11 10 9 9 9 7 7 7 6 5 6 6 6 6 6 5 4 4 4 5 6 6 5 5 7 9 12 17 21 23 23 23 21 19 16 13 9 7 6 7 8 7 6 6 5 4 4 3 3 3 4 4 3 2 1
9 8 9 10 13 16 18 18 17 16 16 15 13 11 11 10 8 7 7 7 6 6 6 6 7 8 9 9 11 12 11 10 9 9 9 9 8 7 7 7 5 4 5 5 5 5 5 4 4 4 3 3 4 5 5 6 8 10 13 19 23 24 24 24 22 17 13 11 11 10 8 7 8 9 8 7 6 5 4 5 5 5 5 4 3 2 2
9 9 10 13 15 18 20 18 15 13 12 11 10 10 9 8 8 7 7 7 6 6 7 8 9 10 11 11 11 11 10 10 9 9 8 8 7 6 6 6 5 4 5 4 4 4 5 5 5 5 4 3 3 4 5 6 8 10 15 22 26 26 25 24 21 16 13 13 13 11 9 8 9 10 9 9 8 7 6 6 5 4 4 4 3 4 3
9 9 11 15 17 19 19 17 14 11 10 9 10 10 9 8 8 7 6 7 7 8 9 10 11 12 12 11 11 10 9 9 9 8 7 6 7 6 5 5 5 4 5 5 4 4 5 5 6 6 5 3 2 2 4 6 10 13 18 25 29 28 26 24 21 18 16 15 13 11 9 9 10 10 10 10 10 8 5 3 1 2 4 5 4 4 4
10 10 12 15 18 19 18 15 12 11 10 10 10 9 8 7 7 7 7 8 8 9 10 12 12 12 11 11 11 10 9 9 9 8 7 7 7 7 7 6 6 5 5 4 3 2 3 3 3 4 3 3 3 3 4 7 11 17 23 28 30 28 26 25 23 20 17 14 12 11 10 9 10 10 10 10 8 6 5 4 3 3 5 5 5 4 4
Height
5796 5797 5799 5800 5802 5803 5804 5805 5806 5807 5808 5809 5810 5810 5811 5811 5811 5812 5812 5812 5812 5812 5812 5812 5812 5812 5812 5812 5811 5811 5810 5810 5809 5808 5808 5807 5806 5805 5804 5803 5802 5800 5799 5798 5796 5795 5793 5792 5790 5788 5786 5784 5782 5779 5777 5775 5772 5769 5767 5764 5761 5758 5755 5753 5751 5749 5745 5742 5738 5734 5731 5727 5723 5720 5717 5714 5710 5706 5701 5695 5691 5688 5685 5682 5674 5668 5671
5796 5798 5799 5801 5803 5804 5805 5806 5806 5807 5808 5809 5810 5810 5811 5811 5811 5811 5811 5812 5812 5812 5812 5812 5811 5811 5811 5811 5810 5810 5809 5809 5808 5807 5806 5805 5804 5803 5802 5801 5799 5798 5797 5795 5794 5792 5790 5789 5787 5785 5783 5781 5778 5776 5773 5771 5768 5765 5762 5760 5757 5754 5751 5748 5745 5743 5741 5738 5734 5730 5727 5723 5719 5717 5713 5710 5706 5701 5696 5691 5686 5682 5681 5677 5668 5663 5665
5797 5799 5800 5802 5803 5804 5805 5806 5807 5807 5808 5809 5810 5810 5810 5811 5811 5811 5811 5811 5811 5811 5811 5811 5811 5810 5810 5810 5809 5809 5808 5807 5806 5806 5804 5803 5802 5801 5800 5799 5797 5796 5794 5793 5791 5789 5787 5786 5784 5782 5779 5777 5775 5772 5770 5767 5764 5761 5758 5756 5753 5750 5747 5744 5740 5737 5734 5732 5729 5725 5722 5718 5715 5713 5709 5705 5702 5696 5690 5685 5680 5677 5674 5670 5664 5659 5657
5798 5800 5801 5803 5804 5805 5806 5806 5807 5808 5808 5809 5810 5810 5810 5810 5811 5811 5811 5811 5811 5810 5810 5810 5810 5809 5809 5808 5808 5807 5807 5806 5805 5804 5803 5801 5800 5799 5798 5796 5795 5793 5792 5790 5788 5786 5784 5782 5780 5778 5776 5773 5771 5768 5766 5763 5760 5757 5754 5751 5749 5746 5744 5740 5736 5733 5730 5727 5724 5720 5716 5714 5711 5708 5705 5701 5696 5691 5685 5680 5676 5672 5666 5664 5663 5655 5648
5800 5801 5802 5804 5805 5806 5806 5807 5807 5808 5809 5809 5809 5810 5810 5810 5810 5810 5810 5810 5810 5810 5810 5809 5809 5808 5808 5807 5807 5806 5805 5804 5803 5802 5801 5799 5798 5797 5795 5794 5792 5791 5789 5787 5785 5783 5781 5779 5777 5774 5772 5769 5767 5764 5762 5759 5756 5753 5750 5747 5744 5741 5740 5737 5732 5729 5727 5723 5720 5715 5711 5709 5707 5704 5700 5696 5690 5685 5681 5676 5672 5668 5660 5658 5660 5651 5642
5801 5802 5803 5804 5805 5806 5807 5807 5808 5808 5809 5809 5809 5810 5810 5810 5810 5810 5810 5809 5809 5809 5809 5808 5808 5807 5807 5806 5805 5804 5803 5802 5801 5800 5799 5797 5796 5794 5793 5791 5789 5788 5786 5784 5782 5780 5778 5776 5773 5771 5768 5766 5763 5760 5758 5755 5752 5749 5745 5742 5739 5736 5735 5732 5728 5725 5723 5719 5715 5711 5707 5704 5702 5699 5695 5690 5684 5679 5676 5672 5668 5663 5657 5653 5653 5647 5640
5802 5803 5804 5805 5806 5806 5807 5807 5808 5808 5808 5809 5809 5809 5809 5809 5809 5809 5809 5809 5808 5808 5808 5807 5806 5806 5805 5804 5803 5802 5801 5800 5799 5798 5796 5795 5793 5791 5790 5788 5786 5784 5782 5780 5778 5776 5774 5772 5769 5767 5765 5762 5759 5756 5753 5750 5748 5744 5741 5738 5734 5731 5729 5727 5723 5721 5720 5715 5710 5706 5703 5700 5698 5695 5689 5683 5679 5675 5671 5668 5664 5659 5654 5651 5646 5641 5639
5803 5804 5805 5806 5806 5807 5807 5807 5808 5808 5808 5809 5809 5809 5809 5809 5809 5809 5808 5808 5807 5807 5806 5806 5805 5804 5803 5802 5801 5800 5799 5798 5797 5795 5794 5792 5791 5789 5787 5785 5783 5781 5779 5777 5775 5772 5770 5768 5765 5763 5760 5757 5754 5752 5749 5746 5743 5740 5737 5733 5730 5726 5723 5721 5717 5716 5716 5712 5706 5702 5698 5695 5694 5691 5684 5679 5675 5671 5666 5663 5660 5655 5651 5646 5640 5635 5634
5804 5805 5805 5806 5806 5807 5807 5807 5808 5808 5808 5808 5808 5808 5808 5808 5808 5808 5807 5807 5806 5805 5805 5804 5803 5802 5802 5801 5799 5798 5797 5796 5794 5793 5791 5789 5788 5786 5784 5782 5780 5778 5775 5773 5771 5768 5766 5763 5761 5758 5756 5753 5750 5747 5744 5741 5738 5735 5732 5729 5725 5721 5718 5715 5711 5709 5710 5707 5702 5698 5694 5692 5689 5685 5680 5675 5671 5666 5662 5659 5657 5652 5645 5640 5635 5630 5627
5805 5805 5806 5806 5806 5807 5807 5807 5808 5808 5808 5808 5808 5808 5808 5807 5807 5807 5806 5805 5805 5804 5803 5802 5802 5801 5800 5799 5797 5796 5795 5793 5792 5790 5788 5786 5784 5783 5781 5778 5776 5774 5772 5769 5767 5764 5762 5759 5756 5754 5751 5748 5745 5742 5739 5736 5733 5730 5727 5723 5720 5716 5712 5710 5706 5704 5704 5701 5697 5693 5690 5688 5684 5679 5675 5671 5666 5661 5658 5656 5654 5648 5639 5633 5630 5625 5622
5805 5805 5806 5806 5807 5807 5807 5807 5807 5807 5807 5807 5807 5807 5807 5806 5806 5805 5805 5804 5803 5803 5802 5801 5800 5799 5798 5797 5795 5794 5792 5791 5789 5787 5785 5783 5781 5779 5777 5775 5773 5770 5768 5765 5763 5760 5758 5755 5752 5749 5746 5743 5740 5737 5735 5732 5728 5725 5722 5718 5715 5712 5708 5706 5702 5699 5698 5696 5692 5689 5687 5684 5679 5673 5669 5665 5660 5656 5653 5652 5650 5643 5634 5629 5625 5621 5618
5805 5806 5806 5807 5807 5807 5807 5807 5807 5807 5807 5807 5807 5806 5806 5805 5805 5804 5803 5802 5801 5801 5800 5799 5798 5797 5796 5794 5793 5791 5790 5788 5786 5784 5782 5780 5778 5776 5773 5771 5769 5766 5764 5761 5758 5756 5753 5750 5748 5745 5742 5739 5736 5733 5730 5727 5724 5721 5717 5714 5711 5708 5705 5702 5698 5695 5693 5691 5688 5685 5684 5680 5673 5667 5663 5659 5655 5652 5648 5647 5646 5639 5630 5626 5622 5617 5613
5806 5806 5806 5806 5806 5807 5806 5807 5807 5807 5806 5806 5806 5805 5805 5804 5803 5802 5802 5801 5800 5799 5798 5797 5796 5795 5794 5792 5790 5789 5787 5785 5783 5781 5779 5777 5774 5772 5770 5767 5764 5762 5759 5757 5754 5751 5749 5746 5743 5741 5738 5734 5732 5729 5726 5723 5720 5717 5714 5711 5708 5704 5701 5698 5695 5691 5689 5686 5684 5680 5679 5676 5670 5663 5658 5655 5652 5648 5643 5642 5642 5635 5627 5623 5618 5612 5607
5806 5806 5806 5806 5806 5806 5806 5806 5806 5806 5805 5805 5804 5804 5803 5803 5802 5801 5800 5799 5798 5797 5796 5795 5794 5793 5791 5790 5788 5786 5784 5782 5780 5777 5775 5773 5771 5768 5766 5763 5760 5758 5755 5752 5749 5747 5744 5742 5740 5737 5734 5731 5728 5726 5723 5720 5717 5714 5711 5708 5704 5701 5698 5695 5691 5688 5685 5682 5679 5676 5674 5672 5666 5659 5655 5651 5647 5643 5637 5635 5635 5630 5622 5616 5610 5604 5600
5806 5806 5806 5806 5806 5806 5806 5806 5805 5805 5805 5804 5803 5803 5802 5801 5801 5800 5799 5798 5797 5795 5794 5793 5792 5790 5788 5787 5785 5783 5781 5778 5776 5774 5772 5769 5767 5764 5761 5759 5756 5753 5751 5748 5746 5743 5740 5738 5736 5733 5731 5728 5725 5723 5720 5717 5714 5711 5708 5704 5701 5698 5695 5692 5688 5685 5681 5677 5674 5672 5669 5667 5660 5654 5650 5646 5642 5637 5631 5626 5625 5622 5615 5608 5601 5596 5593
5806 5806 5806 5806 5806 5806 5805 5805 5805 5804 5804 5803 5803 5802 5801 5800 5800 5798 5797 5796 5795 5794 5792 5791 5789 5787 5785 5783 5781 5779 5777 5775 5772 5770 5767 5765 5762 5760 5757 5755 5752 5750 5747 5745 5742 5740 5737 5734 5732 5730 5726 5724 5721 5719 5716 5713 5711 5708 5704 5701 5698 5695 5692 5689 5686 5682 5679 5674 5671 5667 5664 5661 5655 5649 5645 5641 5636 5632 5626 5621 5619 5615 5607 5601 5595 5591 5586
5806 5806 5806 5806 5806 5805 5805 5805 5804 5804 5803 5803 5802 5801 5800 5799 5798 5797 5796 5794 5793 5791 5790 5788 5786 5784 5782 5780 5778 5776 5773 5771 5768 5766 5763 5761 5759 5756 5754 5751 5749 5747 5744 5742 5740 5737 5734 5731 5729 5727 5723 5720 5717 5715 5712 5709 5706 5704 5700 5698 5695 5692 5690 5687 5683 5680 5676 5671 5668 5664 5661 5657 5651 5645 5641 5636 5630 5626 5620 5614 5612 5609 5602 5594 5588 5583 5578
5806 5806 5806 5806 5806 5805 5805 5804 5804 5803 5802 5801 5801 5800 5799 5797 5796 5795 5793 5792 5790 5788 5787 5785 5783 5781 5779 5776 5774 5772 5769 5767 5764 5762 5760 5758 5756 5753 5751 5749 5746 5744 5741 5739 5737 5734 5731 5728 5726 5724 5721 5718 5715 5712 5709 5706 5703 5700 5697 5694 5692 5689 5687 5684 5680 5676 5673 5668 5663 5660 5656 5652 5646 5640 5635 5630 5625 5621 5615 5608 5603 5600 5596 5589 5581 5575 5569
5806 5806 5806 5806 5805 5805 5804 5804 5803 5802 5801 5800 5799 5798 5797 5795 5794 5792 5791 5789 5787 5785 5783 5781 5779 5777 5775 5772 5770 5768 5766 5763 5761 5759 5757 5755 5753 5751 5748 5746 5744 5741 5739 5736 5734 5732 5729 5726 5723 5721 5718 5715 5713 5710 5707 5703 5699 5696 5694 5691 5688 5685 5682 5679 5675 5671 5667 5663 5659 5654 5650 5646 5641 5635 5629 5623 5618 5613 5608 5603 5596 5590 5585 5582 5576 5570 5563
5806 5806 5806 5805 5805 5804 5803 5802 5801 5800 5799 5798 5797 5796 5794 5793 5791 5790 5788 5786 5784 5782 5780 5777 5775 5773 5771 5768 5766 5764 5763 5761 5759 5757 5754 5752 5750 5748 5746 5744 5741 5739 5736 5734 5731 5729 5726 5724 5721 5718 5715 5713 5710 5708 5705 5702 5697 5693 5690 5687 5684 5681 5677 5674 5670 5666 5662 5658 5653 5647 5643 5640 5635 5628 5623 5617 5611 5606 5601 5597 5593 5585 5577 5573 5569 5565 5557
5806 5805 5805 5804 5803 5802 5802 5801 5800 5799 5797 5796 5795 5793 5792 5790 5789 5787 5785 5782 5780 5778 5775 5773 5771 5769 5767 5766 5764 5762 5760 5758 5756 5754 5752 5750 5748 5746 5743 5741 5739 5736 5734 5732 5729 5726 5724 5721 5718 5715 5713 5710 5707 5705 5702 5699 5696 5691 5687 5684 5681 5677 5673 5669 5665 5661 5657 5653 5648 5641 5637 5634 5629 5622 5617 5612 5605 5599 5594 5589 5586 5582 5574 5566 5562 5559 5554
5805 5805 5804 5803 5802 5801 5800 5799 5798 5797 5796 5794 5793 5791 5789 5787 5785 5783 5781 5779 5776 5774 5772 5770 5768 5767 5765 5763 5761 5760 5758 5756 5754 5752 5750 5748 5745 5743 5741 5739 5736 5734 5731 5729 5726 5724 5721 5718 5716 5713 5710 5707 5704 5701 5698 5695 5692 5689 5684 5681 5678 5674 5670 5666 5662 5657 5653 5649 5644 5637 5633 5630 5624 5617 5612 5607 5601 5594 5589 5583 5578 5574 5569 5561 5555 5551 5548
5804 5804 5803 5802 5801 5800 5799 5798 5797 5796 5794 5792 5791 5789 5787 5784 5782 5780 5778 5776 5773 5771 5769 5768 5766 5765 5763 5761 5759 5757 5756 5754 5752 5749 5747 5745 5743 5741 5739 5736 5734 5731 5729 5726 5724 5721 5719 5716 5713 5710 5707 5704 5701 5698 5694 5691 5688 5685 5681 5678 5674 5670 5665 5661 5657 5653 5649 5644 5639 5633 5628 5625 5621 5614 5607 5602 5596 5590 5584 5579 5574 5569 5564 5557 5548 5542 5537
5804 5803 5802 5801 5800 5799 5798 5797 5795 5794 5792 5790 5788 5786 5784 5782 5780 5778 5776 5773 5771 5769 5768 5766 5764 5763 5761 5759 5757 5755 5754 5751 5749 5747 5745 5743 5741 5739 5736 5734 5732 5729 5727 5724 5721 5719 5716 5714 5711 5708 5705 5701 5698 5695 5691 5687 5684 5681 5677 5674 5670 5665 5661 5657 5652 5648 5644 5640 5635 5630 5625 5620 5615 5610 5604 5599 5593 5587 5580 5574 5569 5564 5559 5552 5544 5536 5529
5803 5802 5801 5800 5799 5798 5796 5795 5793 5791 5789 5787 5785 5783 5781 5780 5778 5776 5774 5772 5770 5768 5766 5765 5763 5761 5759 5757 5756 5754 5752 5750 5748 5746 5743 5741 5739 5737 5734 5732 5729 5727 5724 5722 5719 5716 5714 5711 5708 5705 5702 5699 5695 5692 5688 5684 5680 5677 5673 5669 5665 5660 5656 5652 5647 5643 5638 5634 5630 5625 5621 5615 5608 5602 5599 5595 5591 5586 5580 5571 5563 5556 5550 5544 5538 5530 5520
5802 5801 5800 5799 5798 5796 5794 5793 5791 5789 5787 5785 5783 5781 5780 5778 5776 5774 5772 5770 5768 5767 5765 5763 5761 5760 5758 5756 5754 5752 5750 5748 5746 5744 5742 5739 5737 5735 5732 5730 5727 5724 5722 5719 5717 5714 5711 5708 5705 5702 5699 5696 5693 5689 5684 5680 5676 5673 5669 5664 5660 5655 5651 5646 5642 5638 5634 5629 5624 5620 5618 5616 5608 5599 5592 5587 5581 5577 5573 5565 5557 5549 5540 5533 5528 5522 5513
5801 5800 5799 5797 5796 5794 5792 5790 5788 5786 5785 5783 5781 5779 5778 5776 5775 5773 5771 5769 5767 5765 5763 5762 5760 5758 5756 5754 5752 5750 5748 5746 5744 5742 5740 5737 5735 5732 5730 5727 5725 5722 5720 5717 5714 5711 5708 5705 5702 5699 5696 5692 5689 5685 5681 5676 5672 5668 5664 5659 5654 5650 5646 5641 5636 5633 5629 5624 5619 5612 5608 5607 5602 5594 5586 5579 5572 5566 5561 5555 5547 5540 5532 5523 5517 5512 5507
5800 5798 5797 5795 5794 5792 5790 5788 5786 5784 5782 5781 5779 5778 5776 5775 5773 5771 5769 5767 5766 5764 5762 5760 5758 5757 5755 5752 5750 5748 5746 5744 5742 5740 5738 5735 5733 5730 5728 5725 5722 5720 5717 5714 5711 5708 5705 5702 5699 5696 5693 5689 5685 5681 5676 5672 5668 5663 5659 5654 5649 5645 5641 5636 5630 5626 5622 5617 5611 5605 5599 5595 5592 5586 5579 5573 5566 5559 5554 5547 5539 5531 5523 5514 5506 5499 5493
5798 5796 5795 5793 5791 5789 5787 5785 5783 5782 5780 5778 5777 5776 5774 5773 5771 5769 5767 5766 5764 5762 5760 5759 5757 5755 5753 5751 5749 5747 5745 5743 5740 5738 5736 5733 5731 5728 5725 5723 5720 5717 5714 5711 5708 5705 5702 5699 5696 5692 5689 5685 5681 5676 5672 5668 5663 5659 5654 5650 5645 5640 5635 5630 5624 5619 5615 5610 5605 5600 5594 5588 5584 5578 5571 5564 5557 5551 5546 5540 5532 5524 5516 5507 5498 5490 5482
5796 5794 5792 5790 5788 5786 5784 5783 5781 5779 5778 5776 5775 5774 5772 5771 5769 5768 5766 5764 5762 5760 5759 5757 5755 5753 5751 5749 5747 5745 5743 5741 5738 5736 5734 5731 5729 5726 5723 5721 5718 5715 5712 5708 5705 5702 5699 5695 5692 5688 5685 5681 5677 5672 5668 5663 5659 5655 5650 5646 5641 5636 5630 5625 5618 5613 5609 5605 5599 5594 5587 5580 5575 5571 5566 5558 5549 5541 5534 5527 5520 5513 5506 5499 5491 5484 5476
5793 5791 5789 5787 5785 5783 5782 5780 5779 5777 5776 5774 5773 5772 5770 5769 5768 5766 5764 5762 5760 5759 5757 5755 5753 5751 5749 5747 5745 5743 5741 5739 5736 5734 5731 5729 5726 5723 5721 5718 5715 5712 5709 5705 5702 5699 5695 5692 5688 5685 5681 5677 5673 5668 5664 5659 5655 5650 5646 5642 5637 5632 5627 5621 5615 5608 5603 5598 5594 5590 5583 5575 5566 5560 5556 5551 5542 5532 5524 5517 5511 5505 5499 5492 5485 5477 5469
5790 5788 5786 5785 5783 5781 5780 5778 5777 5775 5774 5773 5771 5770 5769 5767 5766 5764 5762 5761 5759 5757 5755 5754 5752 5750 5748 5746 5744 5742 5739 5737 5734 5731 5729 5726 5723 5721 5718 5715 5712 5709 5706 5702 5699 5695 5692 5688 5685 5681 5677 5673 5669 5664 5660 5655 5651 5647 5642 5638 5633 5628 5623 5617 5612 5606 5598 5591 5584 5580 5577 5572 5564 5553 5545 5537 5530 5522 5515 5510 5505 5500 5494 5488 5481 5474 5465
5788 5786 5784 5783 5781 5780 5778 5777 5775 5774 5772 5771 5770 5768 5767 5765 5764 5762 5761 5759 5757 5756 5754 5752 5750 5748 5746 5744 5742 5740 5737 5734 5731 5729 5726 5723 5721 5718 5715 5712 5709 5706 5703 5699 5695 5692 5689 5685 5681 5677 5673 5669 5665 5660 5656 5651 5647 5642 5638 5633 5629 5624 5619 5613 5606 5600 5594 5586 5577 5568 5562 5558 5554 5547 5539 5530 5522 5515 5509 5502 5496 5492 5488 5482 5475 5468 5460
5786 5785 5783 5782 5780 5778 5777 5775 5774 5772 5771 5770 5768 5767 5766 5764 5763 5761 5760 5758 5756 5755 5753 5751 5749 5747 5744 5742 5740 5737 5734 5732 5729 5726 5724 5721 5718 5715 5712 5709 5706 5703 5699 5696 5692 5688 5685 5681 5677 5673 5669 5665 5660 5656 5651 5647 5642 5637 5633 5628 5623 5618 5614 5608 5601 5593 5585 5577 5570 5562 5553 5545 5539 5535 5530 5524 5517 5511 5505 5498 5489 5483 5478 5474 5466 5459 5451
5785 5784 5782 5780 5779 5777 5775 5774 5773 5771 5770 5769 5767 5766 5765 5763 5761 5760 5758 5757 5755 5753 5751 5749 5747 5745 5742 5740 5737 5734 5732 5729 5727 5724 5721 5718 5715 5712 5709 5706 5703 5699 5696 5692 5689 5685 5681 5677 5673 5669 5665 5660 5655 5651 5646 5642 5637 5633 5628 5623 5617 5611 5606 5602 5597 5589 5580 5569 5559 5552 5546 5539 5532 5528 5524 5518 5512 5506 5501 5495 5487 5479 5472 5467 5461 5454 5445
5784 5783 5781 5779 5778 5776 5774 5773 5771 5770 5769 5767 5766 5765 5763 5762 5760 5758 5757 5755 5753 5751 5749 5747 5744 5742 5740 5737 5735 5732 5730 5727 5724 5721 5718 5715 5712 5709 5706 5702 5699 5696 5692 5688 5685 5681 5677 5672 5668 5664 5660 5655 5650 5645 5641 5636 5632 5627 5622 5615 5609 5603 5596 5590 5585 5580 5574 5564 5553 5543 5537 5532 5526 5521 5517 5512 5506 5498 5492 5487 5480 5472 5465 5458 5452 5444 5436
5784 5782 5780 5778 5777 5775 5773 5772 5770 5769 5768 5766 5765 5763 5762 5760 5758 5757 5755 5753 5751 5749 5746 5744 5742 5739 5736 5734 5731 5729 5727 5724 5721 5718 5715 5712 5709 5706 5702 5699 5696 5692 5688 5684 5680 5676 5672 5668 5664 5659 5655 5650 5645 5640 5636 5630 5625 5620 5615 5608 5601 5594 5587 5579 5573 5567 5563 5557 5549 5541 5534 5530 5525 5519 5513 5508 5501 5493 5485 5477 5469 5461 5453 5445 5437 5430 5423
5783 5781 5779 5778 5776 5774 5772 5771 5769 5768 5766 5765 5763 5762 5760 5758 5756 5754 5752 5750 5748 5746 5743 5741 5738 5736 5733 5731 5728 5725 5723 5720 5717 5714 5711 5708 5705 5702 5699 5695 5692 5688 5683 5679 5675 5671 5667 5663 5659 5655 5650 5645 5640 5635 5630 5624 5618 5612 5606 5599 5592 5585 5578 5570 5562 5555 5550 5545 5540 5534 5527 5523 5520 5516 5510 5504 5498 5489 5481 5473 5465 5456 5448 5440 5432 5424 5416
5783 5781 5779 5777 5775 5773 5772 5770 5768 5766 5765 5763 5761 5760 5758 5756 5754 5752 5750 5748 5745 5743 5740 5738 5735 5733 5731 5728 5725 5722 5719 5717 5714 5711 5708 5705 5702 5698 5694 5691 5687 5683 5679 5675 5671 5667 5662 5657 5654 5650 5645 5640 5635 5630 5624 5617 5611 5605 5599 5593 5585 5577 5569 5562 5554 5547 5540 5533 5527 5520 5514 5507 5504 5502 5498 5494 5489 5483 5477 5471 5463 5455 5446 5438 5429 5421 5413
5782 5780 5778 5776 5774 5773 5771 5769 5767 5765 5763 5762 5760 5758 5756 5754 5751 5749 5747 5745 5743 5740 5738 5735 5733 5730 5727 5725 5722 5719 5716 5713 5711 5708 5704 5701 5698 5694 5690 5686 5683 5679 5675 5671 5667 5662 5658 5653 5648 5644 5640 5635 5630 5624 5618 5612 5605 5598 5592 5586 5579 5571 5563 5556 5548 5541 5536 5531 5524 5517 5509 5501 5494 5490 5486 5481 5476 5472 5467 5463 5457 5449 5441 5433 5425 5417 5409
5782 5779 5778 5776 5774 5772 5769 5768 5766 5764 5762 5760 5758 5756 5753 5751 5749 5747 5744 5742 5740 5738 5735 5733 5730 5727 5724 5721 5719 5716 5713 5710 5707 5704 5701 5697 5694 5690 5686 5682 5678 5675 5670 5666 5662 5658 5653 5648 5644 5639 5634 5629 5624 5619 5613 5607 5600 5592 5585 5579 5574 5567 5560 5553 5545 5536 5529 5525 5521 5515 5508 5500 5492 5485 5479 5475 5469 5462 5456 5451 5446 5440 5434 5426 5419 5411 5403
5781 5779 5777 5775 5773 5771 5769 5767 5765 5762 5760 5758 5756 5753 5751 5749 5746 5744 5742 5739 5737 5735 5732 5729 5727 5724 5721 5718 5715 5712 5710 5706 5703 5700 5697 5693 5689 5686 5682 5678 5674 5670 5666 5662 5658 5653 5648 5643 5638 5634 5629 5623 5618 5613 5608 5602 5595 5587 5579 5572 5567 5562 5555 5548 5541 5533 5525 5519 5514 5510 5504 5498 5490 5482 5475 5469 5464 5458 5450 5443 5437 5432 5426 5419 5412 5404 5396
5780 5778 5776 5774 5772 5770 5767 5765 5763 5761 5758 5756 5754 5751 5749 5746 5744 5741 5739 5736 5734 5732 5729 5726 5723 5720 5718 5715 5712 5709 5706 5703 5699 5696 5692 5689 5685 5681 5677 5673 5670 5666 5661 5657 5653 5648 5643 5638 5633 5628 5623 5618 5612 5607 5602 5596 5590 5584 5576 5567 5560 5554 5548 5540 5533 5527 5521 5514 5508 5503 5498 5492 5486 5478 5470 5463 5457 5452 5446 5439 5432 5425 5418 5412 5405 5397 5388
5779 5777 5775 5772 5770 5768 5766 5763 5761 5759 5756 5754 5751 5749 5746 5743 5741 5738 5736 5733 5730 5728 5726 5723 5720 5717 5714 5711 5708 5705 5702 5698 5695 5691 5688 5684 5680 5676 5673 5669 5665 5661 5657 5653 5648 5643 5638 5633 5628 5623 5618 5613 5607 5601 5595 5589 5583 5578 5572 5564 5554 5546 5539 5533 5526 5520 5515 5510 5504 5498 5492 5487 5481 5474 5466 5458 5451 5445 5440 5434 5429 5421 5414 5407 5400 5392 5382
5778 5776 5773 5771 5768 5766 5764 5761 5759 5756 5753 5751 5748 5745 5743 5740 5737 5735 5732 5730 5727 5725 5722 5719 5716 5713 5710 5707 5704 5701 5697 5694 5690 5687 5683 5680 5676 5672 5668 5664 5660 5656 5652 5648 5643 5638 5633 5628 5623 5618 5613 5607 5601 5595 5588 5581 5575 5568 5563 5557 5549 5540 5532 5526 5519 5513 5508 5503 5498 5493 5487 5482 5477 5470 5463 5455 5447 5439 5432 5426 5421 5415 5409 5402 5396 5389 5380
5777 5774 5771 5769 5767 5764 5761 5759 5756 5753 5750 5747 5744 5742 5739 5737 5734 5732 5729 5727 5724 5721 5718 5715 5712 5709 5706 5703 5700 5696 5693 5690 5686 5682 5679 5675 5671 5667 5664 5660 5656 5651 5647 5642 5638 5633 5627 5622 5616 5611 5606 5600 5594 5588 5582 5574 5567 5559 5552 5546 5540 5532 5525 5518 5512 5506 5501 5495 5491 5486 5480 5475 5470 5465 5458 5451 5443 5436 5428 5420 5413 5406 5401 5395 5388 5382 5375
5775 5772 5769 5767 5764 5761 5758 5755 5752 5749 5746 5744 5741 5739 5736 5734 5731 5729 5726 5723 5720 5717 5714 5712 5708 5705 5702 5699 5696 5692 5689 5685 5681 5678 5674 5670 5666 5662 5659 5655 5650 5646 5641 5637 5631 5626 5621 5616 5610 5604 5598 5592 5586 5581 5575 5568 5560 5552 5545 5537 5530 5523 5517 5511 5505 5499 5493 5488 5483 5478 5473 5468 5463 5458 5452 5446 5438 5430 5422 5414 5407 5400 5393 5388 5381 5374 5368
5772 5769 5767 5764 5761 5758 5755 5752 5749 5746 5743 5740 5738 5735 5733 5730 5728 5725 5722 5720 5717 5714 5711 5708 5705 5701 5698 5695 5692 5688 5684 5681 5677 5673 5670 5666 5662 5658 5654 5650 5645 5640 5635 5630 5625 5619 5615 5610 5605 5598 5591 5584 5577 5571 5566 5560 5552 5545 5537 5530 5523 5517 5510 5504 5498 5491 5485 5480 5476 5471 5466 5461 5456 5451 5446 5440 5433 5425 5416 5408 5401 5393 5386 5380 5375 5369 5362
5769 5766 5764 5761 5758 5754 5751 5748 5746 5743 5740 5737 5735 5732 5730 5727 5724 5722 5719 5716 5713 5710 5707 5704 5701 5697 5694 5691 5687 5683 5680 5676 5672 5669 5665 5661 5657 5653 5649 5645 5640 5635 5630 5624 5619 5613 5608 5603 5598 5592 5585 5576 5569 5562 5556 5550 5544 5537 5529 5522 5515 5508 5501 5495 5489 5483 5477 5472 5467 5463 5458 5453 5449 5444 5439 5433 5427 5419 5410 5401 5394 5387 5380 5373 5368 5362 5356
5766 5764 5761 5757 5754 5751 5748 5745 5742 5740 5737 5734 5732 5729 5726 5723 5720 5718 5715 5712 5709 5706 5703 5699 5696 5693 5689 5686 5682 5679 5675 5672 5668 5664 5661 5657 5653 5649 5644 5639 5634 5629 5624 5618 5613 5607 5601 5595 5590 5585 5579 5572 5563 5555 5548 5541 5535 5529 5522 5514 5506 5499 5492 5486 5480 5475 5469 5464 5459 5454 5450 5445 5440 5435 5430 5425 5420 5413 5405 5395 5386 5379 5372 5366 5359 5354 5348
5763 5760 5757 5754 5751 5748 5745 5742 5739 5737 5734 5731 5729 5726 5723 5720 5717 5714 5711 5708 5705 5701 5698 5695 5692 5689 5685 5682 5678 5674 5671 5667 5663 5659 5656 5652 5648 5643 5639 5634 5629 5624 5618 5612 5606 5600 5594 5588 5581 5576 5571 5566 5560 5552 5544 5535 5527 5520 5512 5505 5498 5491 5484 5478 5473 5467 5461 5456 5451 5447 5442 5437 5432 5427 5422 5416 5411 5406 5401 5393 5384 5375 5366 5360 5353 5347 5340
5760 5757 5754 5751 5747 5744 5742 5739 5736 5734 5731 5728 5726 5723 5720 5717 5714 5711 5707 5704 5701 5698 5694 5691 5688 5684 5681 5677 5674 5670 5666 5662 5658 5654 5650 5646 5642 5638 5634 5629 5624 5619 5614 5608 5601 5593 5587 5581 5574 5567 5561 5556 5551 5545 5538 5531 5522 5513 5505 5497 5490 5483 5477 5471 5466 5460 5455 5450 5445 5440 5435 5430 5425 5420 5415 5409 5403 5398 5394 5388 5381 5373 5364 5356 5348 5341 5334